Regional Weather Roundup
Issued by NWS

Home | Current Version | Previous Version | Graphics & Text | Print | Product List | Glossary On
Versions: 1 2 3 4 5 6 7 8 9 10 11 12 13 14 15 16 17 18 19 20 21 22 23 24 25 26 27 28 29 30 31 32 33 34 35 36 37 38 39 40 41 42 43 44 45 46 47 48 49 50
000
ASUS45 KPSR 280010
RWRAZ

ARIZONA REGIONAL HOURLY WEATHER ROUNDUP
NATIONAL WEATHER SERVICE PHOENIX AZ
500 PM MST WED AUG 27 2014

NOTE: FAIR INDICATES FEW OR NO CLOUDS BELOW 12,000 FEET WITH NO
SIGNIFICANT WEATHER AND/OR OBSTRUCTIONS TO VISIBILITY.

AZZ001>003-036-280100-
NORTHWEST ARIZONA

CITY           SKY/WX    TMP DP  RH WIND       PRES   REMARKS
BULLHEAD CITY  SUNNY    102  41  12 SW5       29.88F
KINGMAN        MOSUNNY   90  43  19 W14       30.09F
6HR MIN TEMP:  83; 6HR MAX TEMP:  91;

$$

AZZ004>008-015-016-018-280100-
NORTH CENTRAL ARIZONA

CITY           SKY/WX    TMP DP  RH WIND       PRES   REMARKS
GRAND CANYON   MOSUNNY   73  39  29 NW8       30.31F
WILLIAMS       MOSUNNY   72  50  46 SW14      30.37F
PRESCOTT       MOSUNNY   80  50  34 W12       30.20F
6HR MIN TEMP:  68; 6HR MAX TEMP:  82;

FLAGSTAFF      MOSUNNY   67  44  43 W8        30.34F
6HR MIN TEMP:  61; 6HR MAX TEMP:  71; 6HR PCP:  0.04;

PAYSON         PTSUNNY   64  54  68 SW6       30.25S THUNDER
PAGE           MOSUNNY   83  50  31 NE8       30.14F
6HR MIN TEMP:  69; 6HR MAX TEMP:  84;

$$

AZZ009>014-017-280100-
NORTHEAST ARIZONA

CITY           SKY/WX    TMP DP  RH WIND       PRES   REMARKS
WINSLOW        PTSUNNY   75  53  46 NW13      30.21F
6HR MIN TEMP:  68; 6HR MAX TEMP:  81; 6HR PCP: TRACE;

SAINT JOHNS    PTSUNNY   76  47  35 NW5       30.25S
6HR MIN TEMP:  67; 6HR MAX TEMP:  78;

SHOW LOW       PTSUNNY   68  46  45 N10       30.33S
$$

AZZ023-280100-
GREATER PHOENIX AREA

CITY           SKY/WX    TMP DP  RH WIND       PRES   REMARKS
PHOENIX        MOSUNNY  101  56  22 NW7G20    29.89F HX 100
6HR MIN TEMP:  92; 6HR MAX TEMP: 103;

BUCKEYE          N/A     99  59  26 CALM      29.90F
GLENDALE       MOSUNNY  100  55  22 S3        29.91F
LUKE AFB       NOT AVBL
6HR MIN TEMP:  93; 6HR MAX TEMP: 100;

DEER VALLEY    MOSUNNY   99  56  23 W14       29.92F
6HR MIN TEMP:  90; 6HR MAX TEMP:  99;

SCOTTSDALE     SUNNY     99  55  23 NW6       29.93F
6HR MIN TEMP:  90; 6HR MAX TEMP:  99;

MESA-FALCON    MOSUNNY   90  55  31 W10       29.92F
MESA-GATEWAY   MOSUNNY   99  55  23 W13       29.94F
CHANDLER       MOSUNNY  100  59  25 SW13      29.91F HX 100
$$

AZZ027-028-280100-
SOUTHWEST MARICOPA COUNTY AND PINAL COUNTY

CITY           SKY/WX    TMP DP  RH WIND       PRES   REMARKS
CASA GRANDE    SUNNY     99  57  25 W9        29.94S
6HR MIN TEMP:  90; 6HR MAX TEMP:  99;

GILA BEND      PTCLDY   102  55  21 VRB2      29.90F HX 101
$$

AZZ503-504-507>509-280100-
SOUTHEAST ARIZONA

CITY           SKY/WX    TMP DP  RH WIND       PRES   REMARKS
TUCSON         SUNNY     95  58  28 N7        30.03F
6HR MIN TEMP:  88; 6HR MAX TEMP:  96;

DAVIS-MONTHAN  SUNNY     93  60  33 N13G18    30.01F
6HR MIN TEMP:  86; 6HR MAX TEMP:  94;

RYAN FIELD       N/A     93  59  31 MISG      30.01F
NOGALES        SUNNY     87  58  37 W10       30.10F
6HR MIN TEMP:  82; 6HR MAX TEMP:  89;

SIERRA VISTA   PTSUNNY   82  55  39 NW5       30.18S
DOUGLAS        MOSUNNY   86  57  37 NW9       30.12S
6HR MIN TEMP:  79; 6HR MAX TEMP:  88;

SAFFORD        SUNNY     92  49  22 W15       30.02F
6HR MIN TEMP:  83; 6HR MAX TEMP:  93;

$$

AZZ020-021-025-026-031-280100-
SOUTHWEST ARIZONA

CITY           SKY/WX    TMP DP  RH WIND       PRES   REMARKS
YUMA           MOSUNNY  105  44  12 CALM      29.84F HX 100
6HR MIN TEMP:  98; 6HR MAX TEMP: 107;

$$

CAZ031-033-041-043-047-048-061-280100-
SOUTHERN CALIFORNIA

CITY           SKY/WX    TMP DP  RH WIND       PRES   REMARKS
DOWNTOWN L.A.  SUNNY     85  51  31 W8G16     29.97S
6HR MIN TEMP:  84; 6HR MAX TEMP:  91;

L.A. AIRPORT   SUNNY     79  61  53 W16       29.98F
6HR MIN TEMP:  78; 6HR MAX TEMP:  83;

SAN DIEGO      MOSUNNY   84  55  36 W12       29.98F
6HR MIN TEMP:  80; 6HR MAX TEMP:  84;

BURBANK        SUNNY     91  44  19 S9        29.98S
6HR MIN TEMP:  86; 6HR MAX TEMP:  93;

ONTARIO        MOSUNNY   93  48  21 SW14G22   29.97F
6HR MIN TEMP:  86; 6HR MAX TEMP:  97;

RIVERSIDE      SUNNY     93  48  21 W15       29.97F
6HR MIN TEMP:  87; 6HR MAX TEMP:  97;

PALM SPRINGS   SUNNY    106  48  14 W13G25    29.87F HX 102
6HR MIN TEMP:  97; 6HR MAX TEMP: 108;

EL CENTRO NAS  MOSUNNY  106  48  14 E8        29.82F HX 102
6HR MIN TEMP:  99; 6HR MAX TEMP: 107;

IMPERIAL       SUNNY    105  49  15 E6        29.82F HX 102
6HR MIN TEMP:  97; 6HR MAX TEMP: 107;

BLYTHE         SUNNY    103  50  17 S7        29.85F HX 100
6HR MIN TEMP:  97; 6HR MAX TEMP: 104;

NEEDLES        SUNNY    104  42  12 E10       29.88F
6HR MIN TEMP:  94; 6HR MAX TEMP: 105;

$$

NVZ020-UTZ003-280100-
SOUTHERN NEVADA-UTAH

CITY           SKY/WX    TMP DP  RH WIND       PRES   REMARKS
LAS VEGAS      MOSUNNY   96  30   9 VRB5      29.96F
6HR MIN TEMP:  84; 6HR MAX TEMP:  96;

SALT LAKE CITY PTSUNNY   74  48  39 NW3       30.19S
6HR MIN TEMP:  69; 6HR MAX TEMP:  76;

$$

NMZ009-TXZ055-280100-
NEW MEXICO-WEST TEXAS

CITY           SKY/WX    TMP DP  RH WIND       PRES   REMARKS
ALBUQUERQUE    MOSUNNY   79  49  34 VRB5      30.20F
6HR MIN TEMP:  72; 6HR MAX TEMP:  80;

EL PASO        PTSUNNY   85  59  41 SE7       30.09F
6HR MIN TEMP:  80; 6HR MAX TEMP:  88;

$$


........................KEY........................
SKY/WX - SKY CONDITION/WEATHER
TMP    - TEMPERATURE IN FAHRENHEIT
DP     - DEW POINT IN FAHRENHEIT
RH     - RELATIVE HUMIDITY IN PERCENT
WIND   - DIRECTION AND SPEED IN MILES PER HOUR (MPH)
VRB    - VARIABLE WIND DIRECTION
PRES   - MEAN SEA LEVEL PRESSURE IN INCHES OF MERCURY
         F - FALLING PRESSURE   R - RISING PRESSURE
         S - STEADY PRESSURE
VSB    - VISIBILITY IN MILES
HX     - HEAT INDEX IN FAHRENHEIT
WCI    - WIND CHILL INDEX IN FAHRENHEIT
TC     - TEMPERATURE IN CELSIUS WHICH IS ALSO KNOWN AS
         TEMPERATURE IN CENTIGRADE
AFB    - AIR FORCE BASE
         LUKE AFB IS LUKE AIR FORCE BASE
         DAVIS-MONTHAN IS DAVIS-MONTHAN AIR FORCE BASE
NAS    - NAVAL AIR STATION
         EL CENTRO NAS IS EL CENTRO NAVAL AIR STATION
N/A    - NOT AVAILABLE


USA.gov is the U.S. government's official web portal to all federal, state and local government web resources and services.